Location: Birkenwerder
(52.6919°N, 13.2774°E)
Time: 22:17:13
(UTC+00:00)

NOSS 2-1 (D) - Pass Details

Date: 07 June 2020
Orbit: 449 x 1754 km, 63.3° (Epoch: 25 June)

Event Time Altitude Azimuth Distance (km) Brightness Sun altitude
Exits shadow 01:16:56 13° 204° (SSW) 1,388 4.7 -9.3°
Maximum altitude 01:19:45 50° 129° (SE) 598 3.4 -9.1°
Drops below altitude 10° 01:23:23 10° 53° (NE) 1,744 7.2 -8.8°
Sets 01:25:47 0° 49° (NE) 2,761 8.6 -8.6°
